[TLELIST] Archives

 

[list_settings.list_name] Current TLEs

November 27th 2022 PST

HST 1 20580U 90037B 22330.84621053 .00001907 00000-0 99662-4 0 9996 2 20580 28.4685 172.2457 0002585 355.4967 24.3663 15.11311593590803 ISS (ZARYA) 1 25544U 98067A 22331.26236615 .00013000 00000-0 23310-3 0 9998 2 25544 51.6445 248.7254 0007139 119.0597 16.2066 15.50262294370479 CXO 1 25867U 99040B 22331.99533054 .00000669 00000-0 00000-0 0 9990 2 25867 40.9734 220.5714 8963614 243.7643 0.0925 0.37813653 12414 ____________________________________________________________________ These 2-Line ...Continue Reading

[list_settings.list_name] Current TLEs

November 26th 2022 PST

HST 1 20580U 90037B 22330.01206198 .00002023 00000-0 10639-3 0 9990 2 20580 28.4685 177.7794 0002549 346.3680 166.1176 15.11309202590941 ISS (ZARYA) 1 25544U 98067A 22330.29596262 .00011213 00000-0 20243-3 0 9993 2 25544 51.6443 253.5155 0007119 115.7539 22.5315 15.50229456370322 CXO 1 25867U 99040B 22331.99533054 .00000669 00000-0 00000-0 0 9990 2 25867 40.9734 220.5714 8963614 243.7643 0.0925 0.37813653 12414 ____________________________________________________________________ These 2-Line ...Continue Reading

[list_settings.list_name] Current TLEs

November 25th 2022 PST

HST 1 20580U 90037B 22328.93126462 .00001910 00000-0 99877-4 0 9999 2 20580 28.4686 184.9494 0002515 334.5778 45.9314 15.11304569590511 ISS (ZARYA) 1 25544U 98067A 22329.32990181 .00010522 00000-0 19064-3 0 9994 2 25544 51.6442 258.3028 0007107 112.0670 31.2717 15.50204200370172 CXO 1 25867U 99040B 22324.06351327 .00000832 00000-0 00000-0 0 9993 2 25867 41.1882 221.4058 8961594 243.2031 0.0358 0.37817816 12384 ____________________________________________________________________ These 2-Line ...Continue Reading

[list_settings.list_name] Current TLEs

November 24th 2022 PST

HST 1 20580U 90037B 22327.81441619 .00001997 00000-0 10490-3 0 9997 2 20580 28.4686 192.3583 0002478 321.9579 90.0608 15.11300867590345 ISS (ZARYA) 1 25544U 98067A 22328.36313807 .00010194 00000-0 18509-3 0 9999 2 25544 51.6442 263.0928 0007089 108.6360 35.9223 15.50181965370029 CXO 1 25867U 99040B 22324.06351327 .00000832 00000-0 00000-0 0 9993 2 25867 41.1882 221.4058 8961594 243.2031 0.0358 0.37817816 12384 ____________________________________________________________________ These 2-Line ...Continue Reading

[list_settings.list_name] Current TLEs

November 23rd 2022 PST

HST 1 20580U 90037B 22326.82426020 .00001988 00000-0 10443-3 0 9994 2 20580 28.4690 198.9272 0002430 311.4421 102.7599 15.11297491590196 ISS (ZARYA) 1 25544U 98067A 22327.33003682 .00009681 00000-0 17634-3 0 9999 2 25544 51.6439 268.2121 0007090 104.3432 31.0612 15.50158193369868 CXO 1 25867U 99040B 22324.06351327 .00000832 00000-0 00000-0 0 9993 2 25867 41.1882 221.4058 8961594 243.2031 0.0358 0.37817816 12384 ____________________________________________________________________ These 2-Line ...Continue Reading

[list_settings.list_name] Current TLEs

November 22nd 2022 PST

HST 1 20580U 90037B 22325.12607594 .00002228 00000-0 11836-3 0 9998 2 20580 28.4693 210.1925 0002386 292.0298 224.5834 15.11291336589934 ISS (ZARYA) 1 25544U 98067A 22326.36465914 .00009471 00000-0 17282-3 0 9997 2 25544 51.6438 272.9968 0007038 101.0576 43.4609 15.50137650369715 CXO 1 25867U 99040B 22324.06351327 .00000832 00000-0 00000-0 0 9993 2 25867 41.1882 221.4058 8961594 243.2031 0.0358 0.37817816 12384 ____________________________________________________________________ These 2-Line ...Continue Reading

[list_settings.list_name] Current TLEs

November 21st 2022 PST

HST 1 20580U 90037B 22325.12607594 .00002228 00000-0 11836-3 0 9998 2 20580 28.4693 210.1925 0002386 292.0298 224.5834 15.11291336590206 ISS (ZARYA) 1 25544U 98067A 22325.33190512 .00009600 00000-0 17519-3 0 9999 2 25544 51.6438 278.1153 0007034 97.5095 39.9612 15.50117677369553 CXO 1 25867U 99040B 22324.06351327 .00000832 00000-0 00000-0 0 9993 2 25867 41.1882 221.4058 8961594 243.2031 0.0358 0.37817816 12384 ____________________________________________________________________ These 2-Line ...Continue Reading

[list_settings.list_name] Current TLEs

November 20th 2022 PST

HST 1 20580U 90037B 22323.78561112 .00002643 00000-0 14236-3 0 9991 2 20580 28.4695 219.0846 0002377 275.8722 133.2752 15.11286729589730 ISS (ZARYA) 1 25544U 98067A 22324.26975581 .00011028 00000-0 20011-3 0 9995 2 25544 51.6432 283.3776 0007459 101.4266 224.9455 15.50100747369384 CXO 1 25867U 99040B 22324.06351327 .00000832 00000-0 00000-0 0 9993 2 25867 41.1882 221.4058 8961594 243.2031 0.0358 0.37817816 12384 ____________________________________________________________________ These 2-Line ...Continue Reading

[list_settings.list_name] Current TLEs

November 19th 2022 PST

HST 1 20580U 90037B 22322.48785784 .00002268 00000-0 12068-3 0 9994 2 20580 28.4696 227.6932 0002381 260.5838 273.9647 15.11279780589538 ISS (ZARYA) 1 25544U 98067A 22323.21216435 .00009553 00000-0 17464-3 0 9993 2 25544 51.6441 288.6194 0006892 90.0874 90.6776 15.50074559369222 CXO 1 25867U 99040B 22324.06351327 .00000832 00000-0 00000-0 0 9993 2 25867 41.1882 221.4058 8961594 243.2031 0.0358 0.37817816 12384 ____________________________________________________________________ These 2-Line ...Continue Reading

[list_settings.list_name] Current TLEs

November 18th 2022 PST

HST 1 20580U 90037B 22321.49673032 .00002681 00000-0 14462-3 0 9995 2 20580 28.4697 234.2676 0002391 248.7033 282.8089 15.11276098589385 ISS (ZARYA) 1 25544U 98067A 22322.36931117 .00008797 00000-0 16147-3 0 9995 2 25544 51.6438 292.7916 0007080 88.3228 66.0395 15.50071188369093 CXO 1 25867U 99040B 22324.06351327 .00000832 00000-0 00000-0 0 9993 2 25867 41.1882 221.4058 8961594 243.2031 0.0358 0.37817816 12384 ____________________________________________________________________ These 2-Line ...Continue Reading
  • This mailing list is a public mailing list - anyone may join or leave, at any time.
  • This mailing list is announce-only.

International Space Station (ISS) / Hubble Space Telescope (HST) / Chandra X-Ray Observatory Orbital Data via EMAIL

Privacy Policy:

Private list